Torna al catalogo

FALCON 9 R/B

AttivoHEO
NORAD 48839·ROCKET BODY·🇺🇸 United States

Lanciato Jun 6, 2021 da Cape Canaveral Space Force Station

Loading…

Prossimi Passaggi (prossime 24 ore)

TLE

AggiornatoSource: Space-Track

Epoca: Sep 14, 2026, 09:18 UTC

1 48839U 21049B   26257.38796660  .00026378  00000-0  86999-3 0  9995
2 48839  27.0174  99.3957 5080820  21.0925 354.0468  5.58869409 91957

Traccia FALCON 9 R/B in tempo reale con AllMySat

Download on the App Store